User: anonymous   Login
Location: Unspecified
(0.0000°N, 0.0000°E)
Time: 19:51:45
(UTC+00:00)
Language:

COSMOS 2391 - Orbit

View from above orbital plane
View from above orbital plane
View from above satellite
View from above satellite

Ground track
Ground track

The orbit data is extracted from the following two-line orbital elements,

1 27465U 02036B   21025.73676069  .00000023  00000-0  93166-4 0  9993
2 27465  82.4859 133.0717 0025341 239.1294 120.7301 12.44895922843150
Epoch (UTC): 25 January 2021 17:40:56
Eccentricity: 0.0025341
inclination: 82.4859°
perigee height: 1466 km
apogee height: 1506 km
right ascension of ascending node: 133.0717°
argument of perigee: 239.1294°
revolutions per day: 12.44895922
mean anomaly at epoch: 120.7301°
orbit number at epoch: 84315

The dashed part of the orbit path shows where the satellite is in the earth's shadow,  

DLR